W1CLK Weather Reports


Display with metric or nautical units.
time (UTC)temp
F
wind
direction
speed
MPH
gust
MPH
rain 1hr
in
rain 24hr
in
rain mn
in
humidity
%
barometer
mb
20260505124844 65 240 2.0 3.0 0.00 0.00 0.00 63 1012.0
20260505124344 64 137 2.0 6.0 0.00 0.00 0.00 64 1012.0
20260505123844 64 258 4.0 8.0 0.00 0.00 0.00 64 1012.0
20260505123345 64 99 2.0 4.0 0.00 0.00 0.00 63 1012.0
20260505122844 63 277 4.0 10.0 0.00 0.00 0.00 65 1012.0
20260505122344 63 271 4.0 8.0 0.00 0.00 0.00 65 1012.0
20260505121844 62 270 4.0 11.0 0.00 0.00 0.00 66 1012.0
20260505121344 62 258 5.0 8.0 0.00 0.00 0.00 66 1012.0
20260505120844 62 270 5.0 11.0 0.00 0.00 0.00 67 1012.0
20260505120345 62 273 8.0 11.0 0.00 0.00 0.00 66 1012.0
20260505115844 62 272 4.0 8.0 0.00 0.00 0.00 68 1012.0
20260505115345 61 280 6.0 10.0 0.00 0.00 0.00 68 1012.0
20260505114844 61 196 2.0 6.0 0.00 0.00 0.00 68 1012.0
20260505114344 61 256 3.0 5.0 0.00 0.00 0.00 69 1012.0
20260505113847 61 271 4.0 8.0 0.00 0.00 0.00 68 1012.0
20260505113344 60 161 3.0 5.0 0.00 0.00 0.00 69 1012.0
20260505112844 60 253 3.0 6.0 0.00 0.00 0.00 69 1012.0
20260505112344 60 271 4.0 8.0 0.00 0.00 0.00 69 1012.0
20260505111844 60 268 6.0 13.0 0.00 0.00 0.00 70 1011.0
20260505111344 59 250 3.0 7.0 0.00 0.00 0.00 70 1011.0
20260505110844 59 253 3.0 6.0 0.00 0.00 0.00 71 1011.0
20260505110349 59 261 4.0 6.0 0.00 0.00 0.00 71 1011.0
20260505101844 57 278 1.0 2.0 0.00 0.00 0.00 75 1011.0
20260505101344 57 188 2.0 3.0 0.00 0.00 0.00 75 1011.0
20260505100844 57 148 3.0 5.0 0.00 0.00 0.00 75 1011.0
20260505100344 57 258 2.0 3.0 0.00 0.00 0.00 76 1011.0
20260505095847 57 262 2.0 5.0 0.00 0.00 0.00 75 1011.0
20260505095344 57 265 2.0 4.0 0.00 0.00 0.00 75 1011.0
20260505094845 56 290 4.0 6.0 0.00 0.00 0.00 76 1011.0
20260505094345 56 151 2.0 3.0 0.00 0.00 0.00 78 1011.0
20260505093844 56 169 2.0 3.0 0.00 0.00 0.00 78 1011.0
20260505093344 56 234 1.0 1.0 0.00 0.00 0.00 78 1011.0
20260505092845 56 223 2.0 2.0 0.00 0.00 0.00 79 1011.0
20260505092344 55 101 1.0 2.0 0.00 0.00 0.00 80 1011.0
20260505091844 55 116 0.0 2.0 0.00 0.00 0.00 81 1011.0
20260505091345 54 139 0.0 2.0 0.00 0.00 0.00 82 1011.0
20260505090844 54 175 2.0 2.0 0.00 0.00 0.00 84 1011.0
20260505090344 53 102 0.0 0.0 0.00 0.00 0.00 86 1011.0
20260505085844 53 121 2.0 2.0 0.00 0.00 0.00 87 1011.0
20260505085344 53 100 0.0 0.0 0.00 0.00 0.00 86 1011.0
20260505084845 54 111 0.0 2.0 0.00 0.00 0.00 86 1011.0
20260505084344 54 0 0.0 0.0 0.00 0.00 0.00 85 1011.0
20260505083844 55 158 0.0 0.0 0.00 0.00 0.00 85 1011.0
20260505083344 55 100 0.0 2.0 0.00 0.00 0.00 85 1011.0
20260505082845 55 93 2.0 2.0 0.00 0.00 0.00 85 1011.0
20260505082345 55 107 0.0 1.0 0.00 0.00 0.00 84 1011.0
20260505081845 55 136 0.0 0.0 0.00 0.00 0.00 84 1011.0
20260505081344 55 0 0.0 0.0 0.00 0.00 0.00 83 1011.0
20260505080844 56 0 0.0 0.0 0.00 0.00 0.00 82 1011.0
20260505080345 56 98 0.0 0.0 0.00 0.00 0.00 82 1011.0
20260505075844 56 131 1.0 2.0 0.00 0.00 0.00 81 1011.0
20260505075345 57 0 0.0 0.0 0.00 0.00 0.00 80 1011.0
20260505074845 57 128 1.0 1.0 0.00 0.00 0.00 79 1011.0
20260505074344 57 112 1.0 1.0 0.00 0.00 0.00 78 1010.0
20260505073845 58 148 1.0 2.0 0.00 0.00 0.00 78 1010.0
20260505073345 58 136 1.0 2.0 0.00 0.00 0.00 76 1011.0
20260505072845 59 207 2.0 2.0 0.00 0.00 0.00 75 1011.0
20260505072344 59 204 2.0 3.0 0.00 0.00 0.00 74 1011.0
20260505071844 59 247 3.0 3.0 0.00 0.00 0.00 74 1011.0
20260505071345 59 156 1.0 3.0 0.00 0.00 0.00 75 1011.0
20260505070844 59 257 2.0 3.0 0.00 0.00 0.00 74 1011.0
20260505070344 59 266 1.0 2.0 0.02 0.00 0.00 73 1011.0
20260505065844 59 270 2.0 3.0 0.00 0.00 0.00 72 1011.0
20260505065345 59 273 1.0 2.0 0.00 0.00 0.00 71 1011.0
20260505064844 59 192 2.0 2.0 0.00 0.00 0.00 72 1011.0
20260505064344 59 218 1.0 1.0 0.00 0.00 0.00 71 1011.0
20260505063844 59 251 1.0 2.0 0.00 0.00 0.00 71 1011.0
20260505063344 59 259 2.0 4.0 0.00 0.00 0.00 71 1011.0
20260505062844 59 199 1.0 2.0 0.00 0.00 0.00 71 1011.0
20260505062344 59 152 1.0 2.0 0.00 0.00 0.00 70 1011.0
20260505061845 59 254 1.0 2.0 0.00 0.00 0.00 71 1011.0
20260505061344 59 225 0.0 0.0 0.00 0.00 0.00 71 1011.0
20260505060844 58 249 1.0 3.0 0.00 0.00 0.00 71 1011.0
20260505060344 58 256 3.0 4.0 0.00 0.00 0.00 70 1011.0
20260505055844 58 260 4.0 4.0 0.00 0.00 0.00 70 1011.0
20260505055345 57 207 1.0 2.0 0.00 0.00 0.00 71 1011.0
20260505054844 57 258 1.0 2.0 0.00 0.00 0.00 71 1011.0
20260505054344 57 258 1.0 2.0 0.00 0.00 0.00 71 1011.0
20260505053844 57 60 1.0 1.0 0.00 0.00 0.00 70 1011.0
20260505053344 57 239 0.0 1.0 0.00 0.00 0.00 69 1011.0
20260505052844 57 113 1.0 1.0 0.00 0.00 0.00 69 1011.0
20260505052345 57 156 1.0 1.0 0.00 0.00 0.00 69 1011.0
20260505051844 57 117 1.0 2.0 0.00 0.00 0.00 68 1011.0
20260505051344 57 0 0.0 0.0 0.00 0.00 0.00 67 1011.0
20260505050845 58 212 0.0 0.0 0.00 0.00 0.00 67 1011.0
20260505050345 58 148 1.0 2.0 0.00 0.00 0.00 66 1011.0
20260505041344 59 226 1.0 3.0 0.00 0.00 0.00 62 1011.0
20260505040844 59 127 0.0 2.0 0.00 0.00 0.00 61 1011.0
20260505040345 60 0 0.0 0.0 0.00 0.00 0.00 60 1011.0
20260505035844 60 120 1.0 3.0 0.00 0.00 0.00 59 1011.0
20260505035344 60 238 0.0 2.0 0.00 0.00 0.00 58 1010.0
20260505034844 60 145 3.0 6.0 0.00 0.00 0.00 58 1010.0
20260505034344 60 185 2.0 4.0 0.00 0.00 0.00 58 1010.0
20260505033844 60 104 3.0 5.0 0.00 0.00 0.00 58 1010.0
20260505033344 60 128 1.0 2.0 0.00 0.00 0.00 58 1011.0
20260505032844 60 101 2.0 5.0 0.00 0.00 0.00 58 1011.0
20260505032345 60 131 0.0 2.0 0.00 0.00 0.00 58 1011.0
20260505031844 60 120 0.0 1.0 0.00 0.00 0.00 59 1011.0
20260505031344 60 0 0.0 0.0 0.00 0.00 0.00 58 1011.0
20260505030844 60 204 1.0 3.0 0.00 0.00 0.00 57 1011.0
20260505025933 60 109 1.0 3.0 0.00 0.00 0.00 57 1011.0
20260505025344 60 102 2.0 3.0 0.00 0.00 0.00 57 1011.0
20260505024846 60 126 0.0 2.0 0.00 0.00 0.00 57 1011.0
20260505024344 60 140 0.0 2.0 0.00 0.00 0.00 56 1011.0
20260505023844 60 122 0.0 0.0 0.00 0.00 0.00 56 1011.0
20260505023345 60 73 1.0 2.0 0.00 0.00 0.00 56 1011.0
20260505022844 60 113 2.0 3.0 0.00 0.00 0.00 56 1011.0
20260505022344 60 103 0.0 2.0 0.00 0.00 0.00 57 1011.0
20260505021844 61 112 0.0 2.0 0.00 0.00 0.00 56 1011.0
20260505021344 61 0 0.0 0.0 0.00 0.00 0.00 55 1011.0
20260505020844 61 92 0.0 1.0 0.00 0.00 0.00 56 1011.0
20260505020344 62 147 1.0 2.0 0.00 0.00 0.00 55 1011.0
20260505015844 62 179 0.0 2.0 0.00 0.00 0.00 53 1011.0
20260505015345 62 111 2.0 6.0 0.00 0.00 0.00 53 1011.0
20260505014844 62 107 1.0 3.0 0.00 0.00 0.00 53 1011.0
20260505014344 62 64 4.0 6.0 0.00 0.00 0.00 53 1011.0
20260505013846 62 184 0.0 2.0 0.00 0.00 0.00 53 1011.0
20260505013345 62 79 1.0 4.0 0.00 0.00 0.00 53 1011.0
20260505012844 62 84 1.0 3.0 0.00 0.00 0.00 52 1011.0
20260505012345 62 164 1.0 2.0 0.00 0.00 0.00 52 1011.0
20260505011844 62 48 1.0 4.0 0.00 0.00 0.00 53 1011.0
20260505011344 61 95 2.0 5.0 0.00 0.00 0.00 53 1011.0
20260505010844 61 108 2.0 4.0 0.00 0.00 0.00 54 1010.0
20260505010344 61 97 0.0 2.0 0.00 0.00 0.00 54 1010.0
20260505005844 62 126 1.0 4.0 0.00 0.00 0.00 54 1010.0
20260505005344 62 79 0.0 2.0 0.00 0.00 0.00 53 1010.0
20260505004844 62 82 0.0 0.0 0.00 0.00 0.00 52 1010.0
20260505004344 62 239 0.0 0.0 0.00 0.00 0.00 52 1010.0
20260505003844 63 52 0.0 1.0 0.00 0.00 0.00 51 1010.0
20260505003344 63 141 0.0 2.0 0.00 0.00 0.00 51 1010.0
20260505002844 63 148 0.0 2.0 0.00 0.00 0.00 50 1010.0
20260505002344 64 0 0.0 0.0 0.00 0.00 0.00 50 1010.0
20260505001845 64 150 0.0 0.0 0.00 0.00 0.00 50 1010.0
20260505001344 65 255 0.0 1.0 0.00 0.00 0.00 49 1010.0
20260505000844 65 0 0.0 0.0 0.00 0.00 0.00 48 1010.0
20260505000345 66 105 1.0 2.0 0.00 0.00 0.00 48 1010.0
20260504235844 66 128 2.0 4.0 0.00 0.00 0.00 47 1010.0
20260504235344 66 131 2.0 4.0 0.00 0.00 0.00 47 1010.0
20260504234844 66 247 1.0 3.0 0.00 0.00 0.00 47 1010.0
20260504234345 67 210 0.0 2.0 0.00 0.00 0.00 47 1010.0
20260504233844 67 162 2.0 3.0 0.00 0.00 0.00 46 1010.0
20260504233344 67 280 1.0 2.0 0.00 0.00 0.00 46 1010.0
20260504232844 67 148 2.0 5.0 0.00 0.00 0.00 46 1010.0
20260504232344 67 111 0.0 2.0 0.00 0.00 0.00 45 1010.0
20260504231844 67 266 3.0 6.0 0.00 0.00 0.00 46 1010.0
20260504231344 67 223 3.0 7.0 0.00 0.00 0.00 45 1010.0
20260504230844 68 269 3.0 7.0 0.00 0.00 0.00 45 1010.0
20260504230344 68 139 4.0 7.0 0.00 0.00 0.00 44 1010.0
20260504225845 68 266 5.0 9.0 0.00 0.00 0.00 45 1010.0
20260504225344 68 242 4.0 9.0 0.00 0.00 0.00 44 1010.0
20260504224844 68 213 3.0 6.0 0.00 0.00 0.00 45 1010.0
20260504224344 69 112 2.0 4.0 0.00 0.00 0.00 44 1010.0
20260504223844 69 172 2.0 7.0 0.00 0.00 0.00 43 1010.0
20260504223344 69 192 3.0 5.0 0.00 0.00 0.00 43 1010.0
20260504222844 69 279 2.0 4.0 0.00 0.00 0.00 42 1010.0
20260504222344 70 256 2.0 6.0 0.00 0.00 0.00 43 1010.0
20260504221844 70 226 6.0 15.0 0.00 0.00 0.00 42 1010.0
20260504221344 70 217 3.0 5.0 0.00 0.00 0.00 42 1010.0
20260504220845 70 266 5.0 8.0 0.00 0.00 0.00 42 1010.0
20260504220345 70 211 3.0 5.0 0.00 0.00 0.00 42 1010.0
20260504215844 71 258 5.0 13.0 0.00 0.00 0.00 42 1010.0
20260504215344 71 116 3.0 6.0 0.00 0.00 0.00 41 1010.0
20260504214844 71 274 2.0 5.0 0.00 0.00 0.00 42 1010.0
20260504214345 71 115 4.0 6.0 0.00 0.00 0.00 42 1010.0
20260504213844 71 156 5.0 11.0 0.00 0.00 0.00 41 1010.0
20260504213344 71 150 3.0 7.0 0.00 0.00 0.00 42 1010.0
20260504212845 71 240 3.0 10.0 0.00 0.00 0.00 42 1010.0
20260504212344 71 182 5.0 10.0 0.00 0.00 0.00 41 1010.0
20260504211846 71 215 4.0 6.0 0.00 0.00 0.00 41 1010.0
20260504211344 71 233 3.0 7.0 0.00 0.00 0.00 42 1010.0
20260504210845 71 111 6.0 10.0 0.00 0.00 0.00 41 1010.0
20260504210344 71 111 4.0 6.0 0.00 0.00 0.00 42 1010.0
20260504205844 71 259 2.0 7.0 0.00 0.00 0.00 44 1010.0
20260504205344 71 132 5.0 8.0 0.00 0.00 0.00 41 1010.0
20260504204844 71 118 6.0 8.0 0.00 0.00 0.00 41 1010.0
20260504204344 71 114 2.0 5.0 0.00 0.00 0.00 42 1010.0
20260504203844 71 165 2.0 5.0 0.00 0.00 0.00 41 1010.0
20260504203344 71 180 4.0 8.0 0.00 0.00 0.00 43 1010.0
20260504202844 71 236 6.0 11.0 0.00 0.00 0.00 42 1010.0
20260504202344 71 144 4.0 8.0 0.00 0.00 0.00 43 1010.0
20260504201844 71 206 1.0 4.0 0.00 0.00 0.00 44 1010.0
20260504200907 71 138 3.0 6.0 0.00 0.00 0.00 42 1010.0
20260504200344 71 125 3.0 6.0 0.00 0.00 0.00 42 1011.0
20260504195846 71 271 6.0 12.0 0.00 0.00 0.00 45 1011.0
20260504195344 71 128 3.0 5.0 0.00 0.00 0.00 42 1011.0
20260504194845 71 138 5.0 11.0 0.00 0.00 0.00 42 1011.0
20260504194345 71 238 3.0 6.0 0.00 0.00 0.00 43 1011.0
20260504193844 71 141 4.0 6.0 0.00 0.00 0.00 41 1011.0
20260504193345 71 175 2.0 6.0 0.00 0.00 0.00 42 1011.0
20260504192844 71 109 3.0 9.0 0.00 0.00 0.00 43 1011.0
20260504192345 71 151 2.0 4.0 0.00 0.00 0.00 41 1011.0
20260504191845 71 255 4.0 10.0 0.00 0.00 0.00 45 1011.0
20260504191345 70 259 6.0 12.0 0.00 0.00 0.00 44 1011.0
20260504190844 70 254 4.0 11.0 0.00 0.00 0.00 44 1011.0
20260504190345 70 156 4.0 8.0 0.00 0.00 0.00 43 1011.0
20260504185845 71 156 2.0 4.0 0.00 0.00 0.00 43 1011.0
20260504185344 70 166 4.0 7.0 0.00 0.00 0.00 43 1011.0
20260504184844 70 278 4.0 9.0 0.00 0.00 0.00 43 1011.0
20260504184344 70 295 2.0 4.0 0.00 0.00 0.00 44 1011.0
20260504183844 70 106 4.0 7.0 0.00 0.00 0.00 42 1011.0
20260504183345 70 97 4.0 8.0 0.00 0.00 0.00 41 1011.0
20260504182845 70 278 4.0 8.0 0.00 0.00 0.00 44 1012.0
20260504182344 70 105 4.0 7.0 0.00 0.00 0.00 43 1012.0
20260504181844 69 300 1.0 3.0 0.00 0.00 0.00 44 1012.0
20260504181344 69 245 3.0 6.0 0.00 0.00 0.00 42 1012.0
20260504180844 69 269 3.0 6.0 0.00 0.00 0.00 43 1012.0
20260504180347 69 278 4.0 7.0 0.00 0.00 0.00 44 1012.0
20260504175845 69 288 4.0 9.0 0.00 0.00 0.00 44 1012.0
20260504175345 69 269 7.0 14.0 0.00 0.00 0.00 44 1012.0
20260504174844 69 139 1.0 4.0 0.00 0.00 0.00 43 1012.0
20260504174345 69 259 4.0 8.0 0.00 0.00 0.00 45 1012.0
20260504173847 68 255 3.0 6.0 0.00 0.00 0.00 48 1012.0
20260504173345 68 147 1.0 3.0 0.00 0.00 0.00 42 1012.0
20260504172845 68 278 3.0 7.0 0.00 0.00 0.00 46 1012.0
20260504172345 68 223 6.0 10.0 0.00 0.00 0.00 45 1012.0
20260504171845 67 224 3.0 7.0 0.00 0.00 0.00 46 1013.0
20260504171345 67 269 7.0 12.0 0.00 0.00 0.00 43 1013.0
20260504170845 68 187 4.0 8.0 0.00 0.00 0.00 43 1013.0
20260504170348 67 124 7.0 13.0 0.00 0.00 0.00 44 1012.0
20260504160344 65 263 2.0 4.0 0.00 0.00 0.00 43 1013.0
20260504150845 64 103 4.0 10.0 0.00 0.00 0.00 44 1014.0
20260504150345 64 206 2.0 5.0 0.00 0.00 0.00 46 1014.0
20260504140845 62 271 4.0 8.0 0.00 0.00 0.00 54 1014.0
20260504140345 61 136 4.0 8.0 0.00 0.00 0.00 52 1014.0